Weather History for Hearne, TX

Change the Weather History Date:

Monday, December 24, 2012

  Actual Average (KCLL) Record (KCLL)
Temperature  
Mean Temperature 56 °F 51 °F  
Max Temperature 69 °F 61 °F 83 °F (1955)
Min Temperature 42 °F 41 °F 11 °F (1989)
Degree Days  
Heating Degree Days 10 14  
Month to date heating degree days 308  
Since 1 July heating degree days 533  
Cooling Degree Days 0 0  
Month to date cooling degree days 13  
Year to date cooling degree days 3086  
Growing Degree Days 6 (Base 50)    
Moisture  
Dew Point 24 °F    
Average Humidity 37    
Maximum Humidity 72    
Minimum Humidity 4    
Precipitation  
Precipitation 0.00 in 0.11 in 1.31 in (2006)
Month to date precipitation 2.51  
Year to date precipitation 39.34  
Sea Level Pressure  
Sea Level Pressure 29.91 in    
Wind  
Wind Speed 0 mph (North)    
Max Wind Speed 0 mph    
Max Gust Speed -    
Visibility 9 miles    
Events      
T = Trace of Precipitation, MM = Missing Value Source: NWS Daily Summary

Daily Weather History Graph

Daily Weather History Graph

Search for Another Location

Airport:

Trip Planner

Search our weather history database for the weather conditions in past years. The results will help you decide how hot, cold, wet, or windy it might be!

Date:

Astronomy

Dec. 24, 2012 Rise Set
Actual Time 7:21 AM CST 5:30 PM CST
Civil Twilight 6:55 AM CST 5:57 PM CST
Nautical Twilight 6:25 AM CST 6:27 PM CST
Astronomical Twilight 5:55 AM CST 6:57 PM CST
Moon 2:54 PM CST (12/24) 4:06 AM CST (12/24)
Length of Visible Light 11h 02m
Length of Day
10h 09m
Waxing Gibbous, 88% of the Moon is Illuminated
Dec 24
Waxing Gibbous
Dec 28
Full
Jan 4
Last Quarter
Jan 11
New
Jan 18
First Quarter

Hourly Weather History & Observations

Time (CST) Temp. Dew Point Humidity Pressure Visibility Wind Dir Wind Speed Gust Speed Precip Events Conditions
12:15 AM 57.2 °F 46.4 °F 67% 29.91 in 10.0 mi Calm Calm - N/A   Clear
12:35 AM 57.2 °F 46.4 °F 67% 29.90 in 10.0 mi Calm Calm - N/A   Clear
12:55 AM 55.4 °F 46.4 °F 72% 29.90 in 10.0 mi Calm Calm - N/A   Clear
1:15 AM 55.4 °F 46.4 °F 72% 29.90 in 10.0 mi Calm Calm - N/A   Clear
1:35 AM 55.4 °F 44.6 °F 67% 29.90 in 10.0 mi Calm Calm - N/A   Clear
1:55 AM 55.4 °F 46.4 °F 72% 29.90 in 10.0 mi Calm Calm - N/A   Scattered Clouds
2:15 AM 55.4 °F 46.4 °F 72% 29.92 in 10.0 mi Calm Calm - N/A   Clear
2:35 AM 59.0 °F 46.4 °F 63% 29.92 in 10.0 mi Calm Calm - N/A   Clear
2:55 AM 55.4 °F 46.4 °F 72% 29.92 in 10.0 mi Calm Calm - N/A   Clear
3:15 AM 55.4 °F 46.4 °F 72% 29.93 in 10.0 mi Calm Calm - N/A   Clear
3:35 AM 53.6 °F 44.6 °F 72% 29.93 in 10.0 mi Calm Calm - N/A   Clear
3:55 AM 53.6 °F 44.6 °F 72% 29.94 in 10.0 mi Calm Calm - N/A   Clear
4:15 AM 51.8 °F 37.4 °F 58% 29.94 in 10.0 mi Calm Calm - N/A   Clear
4:35 AM 50.0 °F 32.0 °F 50% 29.95 in 10.0 mi Calm Calm - N/A   Clear
4:55 AM 48.2 °F 30.2 °F 50% 29.96 in 10.0 mi Calm Calm - N/A   Clear
5:15 AM 44.6 °F 32.0 °F 61% 29.96 in 10.0 mi Calm Calm - N/A   Clear
5:35 AM 44.6 °F 32.0 °F 61% 29.97 in 10.0 mi Calm Calm - N/A   Clear
5:55 AM 44.6 °F 32.0 °F 61% 29.97 in 10.0 mi Calm Calm - N/A   Clear
6:15 AM 44.6 °F 32.0 °F 61% 29.98 in 10.0 mi Calm Calm - N/A   Clear
6:35 AM 44.6 °F 30.2 °F 57% 29.98 in 10.0 mi Calm Calm - N/A   Clear
6:55 AM 42.8 °F 30.2 °F 61% 29.99 in 10.0 mi Calm Calm - N/A   Clear
7:15 AM 42.8 °F 30.2 °F 61% 30.00 in 10.0 mi Calm Calm - N/A   Clear
7:35 AM 42.8 °F 30.2 °F 61% 30.01 in 10.0 mi Calm Calm - N/A   Clear
7:55 AM 42.8 °F 28.4 °F 57% 30.01 in 10.0 mi Calm Calm - N/A   Clear
8:15 AM 42.8 °F 32.0 °F 66% 30.01 in 10.0 mi Calm Calm - N/A   Clear
8:35 AM 44.6 °F 30.2 °F 57% 30.01 in 10.0 mi Calm Calm - N/A   Clear
8:55 AM 46.4 °F 30.2 °F 53% 30.02 in 10.0 mi Calm Calm - N/A   Clear
9:15 AM 48.2 °F 28.4 °F 46% 30.03 in 10.0 mi Calm Calm - N/A   Clear
9:35 AM 50.0 °F 24.8 °F 37% 30.03 in 10.0 mi Calm Calm - N/A   Clear
9:55 AM 51.8 °F 23.0 °F 33% 30.04 in 10.0 mi Calm Calm - N/A   Clear
10:15 AM 51.8 °F 23.0 °F 33% 30.04 in 10.0 mi Calm Calm - N/A   Clear
10:35 AM 53.6 °F 23.0 °F 30% 30.04 in 10.0 mi Calm Calm - N/A   Clear
10:55 AM 55.4 °F 23.0 °F 29% 30.03 in 10.0 mi Calm Calm - N/A   Clear
11:15 AM 55.4 °F 21.2 °F 26% 30.02 in 10.0 mi Calm Calm - N/A   Clear
11:35 AM 57.2 °F 19.4 °F 23% 30.01 in 10.0 mi Calm Calm - N/A   Clear
11:55 AM 59.0 °F 15.8 °F 19% 30.00 in 10.0 mi Calm Calm - N/A   Clear
12:15 PM 60.8 °F 12.2 °F 15% 29.98 in 10.0 mi Calm Calm - N/A   Clear
12:35 PM 60.8 °F 10.4 °F 14% 29.97 in 10.0 mi Calm Calm - N/A   Clear
12:55 PM 62.6 °F 10.4 °F 13% 29.95 in 10.0 mi Calm Calm - N/A   Clear
1:15 PM 64.4 °F 5.0 °F 10% 29.93 in 10.0 mi Calm Calm - N/A   Clear
1:35 PM 64.4 °F 5.0 °F 10% 29.92 in 10.0 mi Calm Calm - N/A   Clear
1:55 PM 64.4 °F 1.4 °F 8% 29.90 in 10.0 mi Calm Calm - N/A   Clear
2:15 PM 66.2 °F -0.4 °F 7% 29.90 in 10.0 mi Calm Calm - N/A   Clear
2:35 PM 68.0 °F -4.0 °F 6% 29.88 in 10.0 mi Calm Calm - N/A   Clear
2:55 PM 68.0 °F -4.0 °F 6% 29.87 in 10.0 mi Calm Calm - N/A   Clear
3:15 PM 68.0 °F -4.0 °F 6% 29.86 in 7.0 mi Calm Calm - N/A   Clear
3:35 PM 69.8 °F -9.4 °F 4% 29.85 in 0.8 mi Calm Calm - N/A   Haze
3:55 PM 69.8 °F -14.8 °F 4% 29.85 in 1.5 mi Calm Calm - N/A   Haze
4:15 PM 69.8 °F -11.2 °F 4% 29.85 in 1.8 mi Calm Calm - N/A   Haze
4:35 PM 68.0 °F -7.6 °F 5% 29.84 in 3.0 mi Calm Calm - N/A   Haze
4:55 PM 68.0 °F -4.0 °F 6% 29.83 in 0.5 mi Calm Calm - N/A   Haze
5:15 PM 66.2 °F 5.0 °F 9% 29.83 in 0.5 mi Calm Calm - N/A   Haze
5:35 PM 64.4 °F 10.4 °F 12% 29.81 in 0.5 mi Calm Calm - N/A   Haze
5:55 PM 62.6 °F 12.2 °F 14% 29.81 in 0.8 mi Calm Calm - N/A   Haze
6:15 PM 60.8 °F 15.8 °F 17% 29.81 in 0.8 mi Calm Calm - N/A   Haze
6:35 PM 59.0 °F 19.4 °F 22% 29.81 in 7.0 mi Calm Calm - N/A   Clear
6:55 PM 55.4 °F 24.8 °F 31% 29.82 in 10.0 mi Calm Calm - N/A   Clear
7:15 PM 55.4 °F 24.8 °F 31% 29.82 in 10.0 mi Calm Calm - N/A   Clear
7:35 PM 53.6 °F 26.6 °F 35% 29.81 in 10.0 mi Calm Calm - N/A   Clear
7:55 PM 53.6 °F 24.8 °F 33% 29.81 in 10.0 mi Calm Calm - N/A   Clear
8:15 PM 53.6 °F 24.8 °F 33% 29.81 in 10.0 mi Calm Calm - N/A   Clear
8:35 PM 55.4 °F 24.8 °F 31% 29.81 in 10.0 mi Calm Calm - N/A   Clear
8:55 PM 55.4 °F 23.0 °F 29% 29.80 in 10.0 mi Calm Calm - N/A   Clear
9:15 PM 55.4 °F 26.6 °F 33% 29.79 in 10.0 mi Calm Calm - N/A   Clear
9:35 PM 55.4 °F 30.2 °F 38% 29.79 in 10.0 mi Calm Calm - N/A   Scattered Clouds
9:55 PM 55.4 °F 30.2 °F 38% 29.79 in 10.0 mi Calm Calm - N/A   Overcast
10:15 PM 57.2 °F 28.4 °F 33% 29.80 in 10.0 mi Calm Calm - N/A   Overcast
10:35 PM 59.0 °F 28.4 °F 31% 29.81 in 10.0 mi Calm Calm - N/A   Overcast
10:55 PM 59.0 °F 26.6 °F 29% 29.80 in 10.0 mi Calm Calm - N/A   Overcast
11:15 PM 59.0 °F 26.6 °F 29% 29.80 in 10.0 mi Calm Calm - N/A   Overcast
11:35 PM 59.0 °F 26.6 °F 29% 29.78 in 10.0 mi Calm Calm - N/A   Overcast
11:55 PM 60.8 °F 24.8 °F 25% 29.76 in 10.0 mi Calm Calm - N/A   Overcast